Tracking 35275 objects as of 8-Sep-2026
HD Live streaming from Space Station
objects crossing your sky now

BREEZE-M DEB (TANK)


BREEZE-M DEB (TANK) is no longer on orbit


NORAD ID: 33597
Int'l Code: 2009-007C
Launch date: February 11, 2009
Source: Commonwealth of Independent States (former USSR) (CIS)
Launch site: TYURATAM MISSILE AND SPACE COMPLEX (TTMTR)
Decay date: 2021-11-14

Note: This is SATELLITE DEBRIS
Your satellite tracking list
Your tracking list is empty




NASA's NSSDC Master Catalog

Two Line Element Set (TLE):
1 33597U 09007C   21318.08563291  .99999999  28493-4  31245-2 0  9991
2 33597  44.4861 162.1233 1594566  80.1030  42.5196 12.84067131109596
Source of the keplerian elements: AFSPC